This is the latest recevied weather packets stored in our database for station/object DC7RY. If no packets are shown the sender has not sent any weather packets the latest 10 day(s).
| Time | Temp. | Humidity | Pressure | Rain* | Wind** | Luminosity | Snow |
|---|---|---|---|---|---|---|---|
| 1777512018 | 2.22° C | 62% | 1022.9 hPa | 0 mm | - | 0 W/m² | - |
| 1777511426 | 2.22° C | 63% | 1022.9 hPa | 0 mm | - | 0 W/m² | - |
| 1777510818 | 2.22° C | 62% | 1022.9 hPa | 0 mm | - | 0 W/m² | - |
| 1777510226 | 2.22° C | 61% | 1022.8 hPa | 0 mm | - | 0 W/m² | - |
| 1777509618 | 2.22° C | 62% | 1022.8 hPa | 0 mm | - | 0 W/m² | - |
| 1777509026 | 2.78° C | 64% | 1022.8 hPa | 0 mm | - | 0 W/m² | - |
| 1777508418 | 2.78° C | 62% | 1022.8 hPa | 0 mm | - | 0 W/m² | - |
| 1777507826 | 2.78° C | 61% | 1022.8 hPa | 0 mm | - | 0 W/m² | - |
| 1777507218 | 2.78° C | 62% | 1022.9 hPa | 0 mm | - | 0 W/m² | - |
| 1777506626 | 2.78° C | 63% | 1022.9 hPa | 0 mm | - | 0 W/m² | - |
| 1777506018 | 3.33° C | 63% | 1022.9 hPa | 0 mm | - | 0 W/m² | - |
| 1777505426 | 3.33° C | 60% | 1022.9 hPa | 0 mm | - | 0 W/m² | - |
| 1777504818 | 3.33° C | 57% | 1022.8 hPa | 0 mm | - | 0 W/m² | - |
| 1777504226 | 3.89° C | 57% | 1022.5 hPa | 0 mm | - | 0 W/m² | - |
| 1777503618 | 3.89° C | 57% | 1022.5 hPa | 0 mm | - | 0 W/m² | - |
| 1777503026 | 3.89° C | 57% | 1022.5 hPa | 0 mm | - | 0 W/m² | - |
| 1777502418 | 4.44° C | 58% | 1022.4 hPa | 0 mm | - | 0 W/m² | - |
| 1777501826 | 4.44° C | 57% | 1022 hPa | 0 mm | - | 0 W/m² | - |
| 1777501218 | 5° C | 56% | 1022 hPa | 0 mm | - | 0 W/m² | - |
| 1777500626 | 5° C | 56% | 1021.9 hPa | 0 mm | - | 0 W/m² | - |
| 1777500018 | 5.56° C | 54% | 1021.9 hPa | 0 mm | - | 0 W/m² | - |
| 1777499430 | 6.11° C | 54% | 1021.9 hPa | 0 mm | - | 0 W/m² | - |
| 1777498823 | 6.11° C | 52% | 1021.9 hPa | 0 mm | - | 0 W/m² | - |
| 1777498231 | 6.11° C | 49% | 1021.7 hPa | 0 mm | - | 0 W/m² | - |
| 1777497623 | 6.67° C | 50% | 1021.6 hPa | 0 mm | - | 0 W/m² | - |
* Rain latest hour (hover to see other rain measurements)
** Current wind speed in m/s (hover to see current wind gust speed)